Location: Kitt Peak
(31.9639°N, 111.5992°W)
Time: 14:16:33
(UTC-07:00)

Envisat - Visible Passes

Search period start: 20 February 2018 00:00
Search period end: 02 March 2018 00:00
Orbit: 764 x 766 km, 98.2° (Epoch: 19 February)

Date Brightness Start Highest point End Pass type
(mag) Time Alt. Az. Time Alt. Az. Time Alt. Az.
20 Feb 4.0 19:10:34 10° ESE 19:14:37 25° ENE 19:18:42 10° NNE visible
20 Feb 4.7 20:49:04 10° SSW 20:53:27 29° W 20:57:52 10° NW visible
21 Feb 3.1 20:11:36 10° S 20:16:39 74° WSW 20:21:44 10° NNW visible
22 Feb 3.2 19:35:13 10° SE 19:40:02 45° ENE 19:44:51 10° N visible
22 Feb 5.6 21:16:13 10° SW 21:19:11 16° W 21:22:12 10° WNW visible
23 Feb 4.3 19:00:02 10° ESE 19:03:35 19° ENE 19:07:09 10° NNE visible
23 Feb 4.3 20:37:35 10° SSW 20:42:16 38° W 20:46:59 10° NNW visible
24 Feb 2.8 20:00:28 10° SSE 20:05:31 86° ENE 20:10:37 10° N visible
25 Feb 3.5 19:24:23 10° SE 19:28:57 35° ENE 19:33:32 10° N visible
25 Feb 5.3 21:04:16 10° SW 21:07:59 20° W 21:11:43 10° NW visible
26 Feb 4.5 18:49:44 10° E 18:52:34 15° ENE 18:55:24 10° NNE visible
26 Feb 3.8 20:26:13 10° S 20:31:07 50° W 20:36:02 10° NNW visible
27 Feb 2.9 19:49:24 10° SSE 19:54:25 66° ENE 19:59:27 10° N visible
27 Feb 6.0 21:33:06 10° W 21:33:47 10° W 21:34:28 10° W visible
28 Feb 3.9 19:13:41 10° SE 19:17:54 27° ENE 19:22:08 10° NNE visible
28 Feb 4.9 20:52:34 10° SSW 20:56:47 27° W 21:01:02 10° NW visible
01 Mar 3.3 20:14:57 10° S 20:19:58 66° WSW 20:25:01 10° NNW visible
